Location: Latta
(44.3000°N, 77.3397°W)
Time: 15:50:38
(UTC+00:00)

Tiangong - Visible Passes

Search period start: 08 December 2022 00:00
Search period end: 18 December 2022 00:00
Orbit: 386 x 392 km, 41.5° (Epoch: 08 December)

Date Brightness Start Highest point End Pass type
(mag) Time Alt. Az. Time Alt. Az. Time Alt. Az.
08 Dec -0.3 23:33:30 10° WSW 23:36:12 25° SSW 23:36:30 25° S visible
09 Dec -0.6 22:35:10 10° W 22:38:05 34° SSW 22:41:01 10° SE visible
10 Dec 1.2 00:13:27 10° SW 00:13:44 11° SW 00:13:44 11° SW visible
10 Dec 0.6 23:14:15 10° WSW 23:16:24 17° SSW 23:18:33 10° SSE visible
11 Dec 0.2 22:15:36 10° WSW 22:18:15 24° SSW 22:20:53 10° SE visible
12 Dec 1.3 22:55:54 10° SW 22:56:21 10° SSW 22:56:47 10° SSW visible
